Location: Omaha
(41.2590°N, 95.9380°W)
Time: 13:26:38
(UTC-06:00)

OTV 5 (USA 277) - Pass Details

Date: 08 October 2017
Orbit: 404 x 417 km, 43.0° (Epoch: 07 September)

Event Time Altitude Azimuth Distance (km) Brightness Sun altitude
Rises 20:21:11 0° 221° (SW) 2,343 ? -17.3°
Reaches altitude 10° 20:23:29 10° 209° (SSW) 1,483 ? -17.7°
Enters shadow 20:25:42 24° 170° (S) 893 ? -18.1°
